Terminal Aerodrome Forecast
Issued by NWS

Home | Current Version | Previous Version | Text Only | Print | Product List | Glossary On
Versions: 1 2 3 4 5 6 7 8 9 10 11 12 13 14 15 16 17 18 19 20 21 22 23 24 25 26 27
924
FTUS43 KOAX 251001 AAD
TAFBFF
TAF AMD
KBFF 251001Z 2510/2606 VRB04KT P6SM VCFG SCT001
     FM251400 29008KT P6SM SCT150
     FM251900 29012G20KT P6SM BKN250=

USA.gov is the U.S. government's official web portal to all federal, state and local government web resources and services.